Regional Weather Roundup
Issued by NWS Boston, MA

Home | Current Version | Previous Version | Text Only | Print | Product List | Glossary On
Versions: 1 2 3 4 5 6 7 8 9 10 11 12 13 14 15 16 17 18 19 20 21 22 23 24 25 26 27 28 29 30 31 32 33 34 35 36
000
ASUS41 KBOX 031004
RWRBOX

REGIONAL WEATHER ROUNDUP
NATIONAL WEATHER SERVICE BOSTON/NORTON MA
600 AM EDT TUE AUG 03 2021

NOTE:  "FAIR" INDICATES FEW OR NO CLOUDS BELOW 12,000 FEET WITH NO
SIGNIFICANT WEATHER AND/OR OBSTRUCTIONS TO VISIBILITY.

MAZALL-031100-
EASTERN MASSACHUSETTS

CITY           SKY/WX    TMP DP  RH WIND       PRES   REMARKS
BOSTON         PTCLDY    67  56  67 CALM      30.10R
BEVERLY        CLEAR     56  55  97 CALM      30.10R
LAWRENCE       CLEAR     56  54  93 CALM      30.12R
BEDFORD        CLEAR     54  54 100 CALM      30.10R
BLUE HILL      NOT AVBL
NORWOOD        FOG       52  49  89 CALM      30.11R VSB 1/4
MARSHFIELD     CLEAR     55  55 100 CALM      30.10R
PLYMOUTH       CLEAR     56  54  93 CALM      30.11R
TAUNTON        CLEAR     52  51  97 CALM      30.10R
NEW BEDFORD    CLEAR     55  54  96 CALM      30.10R
$$

MAZALL-031100-
CAPE COD AND THE ISLANDS

CITY           SKY/WX    TMP DP  RH WIND       PRES   REMARKS
FALMOUTH       CLEAR     54  54 100 CALM      30.10R
HYANNIS        CLEAR     69  57  65 N3        30.09R
CHATHAM        CLEAR     62  60  93 CALM      30.11R
PROVINCETOWN   CLEAR     59  59 100 CALM      30.11R
NANTUCKET      FOG       61  59  93 CALM      30.10R VSB 1/4
MARTHAS VNYRD  CLEAR     54  52  93 CALM      30.09S
$$

MAZALL-031100-
CENTRAL AND WESTERN MASSACHUSETTS

CITY           SKY/WX    TMP DP  RH WIND       PRES   REMARKS
WORCESTER      CLEAR     61  50  67 N5        30.13R
FITCHBURG      CLEAR     53  50  89 CALM      30.12R
ORANGE         FOG       52  52 100 CALM      30.14R VSB<1/4
SPRINGFIELD    CLEAR     51  51 100 CALM      30.11R
WESTFIELD      CLEAR     52  52 100 CALM      30.12R
NORTH ADAMS    CLEAR     49  47  93 CALM      30.14S
PITTSFIELD     CLEAR     49  47  93 CALM      30.14R
$$

RIZALL-031100-
RHODE ISLAND

CITY           SKY/WX    TMP DP  RH WIND       PRES   REMARKS
PROVIDENCE     MOCLDY    61  56  83 CALM      30.11R
NEWPORT        CLEAR     61  57  87 NW3       30.10R
BLOCK ISLAND   CLEAR     62  57  83 N3        30.11R
SMITHFIELD     CLEAR     53  53 100 CALM      30.12R
WESTERLY       CLEAR     55  55 100 NE3       30.10R
$$

CTZALL-031100-
CONNECTICUT

CITY           SKY/WX    TMP DP  RH WIND       PRES   REMARKS
BRADLEY INTL   MOCLDY    54  51  90 CALM      30.12R
HARTFORD       CLEAR     57  54  89 CALM      30.11R
BRIDGEPORT     PTCLDY    62  52  69 N3        30.10S
DANBURY        PTCLDY    53  50  89 CALM      30.13S
GROTON         PTCLDY    59  54  83 N3        30.09S
NEW HAVEN      PTCLDY    61  55  81 N6        30.10S
CHESTER        FAIR      61  54  77 NW5       30.11R
MERIDEN        PTCLDY    55  52  89 CALM      30.11R
WILLIMANTIC    CLEAR     53  52  96 CALM      30.12S
OXFORD         PTCLDY    55  55 100 CALM      30.13R
$$

MEZ002-015-021-024-NHZ003-005-008-011-012-014-VTZ005-008-031100-
NORTHERN NEW ENGLAND

CITY           SKY/WX    TMP DP  RH WIND       PRES   REMARKS
PORTLAND ME    PTCLDY    54  51  90 CALM      30.08S
BANGOR ME      CLEAR     51  51 100 CALM      30.06R
CONCORD NH     CLEAR     49  47  93 S6        30.12R
MANCHESTER NH  PTCLDY    57  53  86 N5        30.09R
NASHUA NH      CLEAR     54  54 100 CALM      30.12R
PORTSMOUTH NH  PTCLDY    56  53  89 CALM      30.11R
JAFFREY NH     CLEAR     50  32  50 CALM      30.13S
KEENE NH       FOG       52  52 100 CALM      30.14S VSB 3/4
BURLINGTON VT  PTCLDY    56  51  84 SE5       30.07R
MT. WASHINGTON PTCLDY    39  38  97 W31         N/A  WCI  27
$$

NYZ052-076-031100-
EASTERN NEW YORK

CITY           SKY/WX    TMP DP  RH WIND       PRES   REMARKS
ALBANY         PTCLDY    50  50 100 CALM      30.13R
NEW YORK CITY  MOCLDY    68  56  65 NE3       30.10R
$$

ANZALL-031100-
MARINE OBSERVATIONS

STATION/POSITION TIME  TEMP    WIND        PRES    VSBY  WAVE
                       AIR SEA DIR/SP/G                  HT/PER
                 (UTC) (F)     (DEG/KT/KT) (MB)    (MI)  (FT/S)
BOSTON BUOY      0940      67  310/  4/  6 1019.4
BUZZARDS BAY     0900          360/  6/  7 1019.8S
NANTUCKET SOUND  0940   73 74  200/  2/  2 1018.9R
MASS BAY-STELLWA 0904   66 67  340/  4/  6 1018.6R  1 7/8  2/ 8
ISLE OF SHOALS   0900   62     260/  6/  7 1018.4R
S OF BLOCK IS    0926      68                N/A           4/ 8
$$

......................KEY.........................
  SKY/WX - SKY CONDITION/PRESENT WEATHER
  TMP    - TEMPERATURE IN FAHRENHEIT
  DWPT   - DEWPOINT IN FAHRENHEIT
  RH     - RELATIVE HUMIDITY IN PERCENT
  WIND   - DIRECTION AND SPEED IN MPH
  PRES   - MEAN SEA LEVEL PRESSURE IN INCHES OF HG
  WCI    - WIND CHILL INDEX
  VSB    - VISIBILITY IN MILES
  HX     - HEAT INDEX
  TC     - TEMPERATURE IN CELSIUS
  VRB    - VARIABLE WIND DIRECTION
  N/A    - NOT AVAILABLE



USA.gov is the U.S. government's official web portal to all federal, state and local government web resources and services.